contact:dominique.lefevre@mio.osupytheas.fr, maurice.libes@osupytheas.fr, didier.mallarino@osupytheas.fr
Project:EMSO http://www.emso-fr.org/EMSO-France
Depth: 2436.0 m
Title:EMSO Ligure Ouest : Data MII capteur MICROCAT
DateTime_Computer,Latitude,Longitude,Temperature,Conductivity,Pressure,DateTime_Instrument
DateTime_Computer,Latitude,Longitude,degC,S m-1,dbar,DateTime_Instrument
2022-12-27T00:00:34Z,42.805,6.029,13.3020,4.60071,2470.646,2022-12-27T02:06:34Z
2022-12-27T00:03:37Z,42.805,6.029,13.3014,4.60075,2470.646,2022-12-27T02:09:37Z
2022-12-27T00:06:40Z,42.805,6.029,13.3017,4.60080,2470.67,2022-12-27T02:12:40Z
2022-12-27T00:09:43Z,42.805,6.029,13.3015,4.60081,2470.6,2022-12-27T02:15:43Z
2022-12-27T00:12:46Z,42.805,6.029,13.3015,4.60075,2470.646,2022-12-27T02:18:46Z
2022-12-27T00:15:49Z,42.805,6.029,13.3013,4.60079,2470.661,2022-12-27T02:21:50Z
2022-12-27T00:18:52Z,42.805,6.029,13.3020,4.60079,2470.624,2022-12-27T02:24:53Z
2022-12-27T00:21:55Z,42.805,6.029,13.3016,4.60074,2470.624,2022-12-27T02:27:56Z
2022-12-27T00:24:58Z,42.805,6.029,13.3017,4.60081,2470.637,2022-12-27T02:30:59Z
2022-12-27T00:28:01Z,42.805,6.029,13.3017,4.60075,2470.624,2022-12-27T02:34:02Z
2022-12-27T00:31:04Z,42.805,6.029,13.3017,4.60075,2470.624,2022-12-27T02:37:05Z
2022-12-27T00:34:08Z,42.805,6.029,13.3019,4.60078,2470.646,2022-12-27T02:40:08Z
2022-12-27T00:37:11Z,42.805,6.029,13.3019,4.60072,2470.646,2022-12-27T02:43:11Z
2022-12-27T00:40:14Z,42.805,6.029,13.3017,4.60072,2470.6,2022-12-27T02:46:14Z
2022-12-27T00:43:17Z,42.805,6.029,13.3015,4.60069,2470.624,2022-12-27T02:49:17Z
2022-12-27T00:46:20Z,42.805,6.029,13.3018,4.60069,2470.624,2022-12-27T02:52:20Z
2022-12-27T00:49:23Z,42.805,6.029,13.3013,4.60075,2470.624,2022-12-27T02:55:24Z
2022-12-27T00:52:26Z,42.805,6.029,13.3018,4.60073,2470.661,2022-12-27T02:58:27Z
2022-12-27T00:55:29Z,42.805,6.029,13.3015,4.60067,2470.661,2022-12-27T03:01:30Z
2022-12-27T00:58:32Z,42.805,6.029,13.3015,4.60072,2470.614,2022-12-27T03:04:33Z
2022-12-27T01:01:35Z,42.805,6.029,13.3014,4.60072,2470.61,2022-12-27T03:07:36Z
2022-12-27T01:04:38Z,42.805,6.029,13.3017,4.60069,2470.6,2022-12-27T03:10:39Z
2022-12-27T01:07:42Z,42.805,6.029,13.3021,4.60066,2470.614,2022-12-27T03:13:42Z
2022-12-27T01:10:45Z,42.805,6.029,13.3014,4.60073,2470.6,2022-12-27T03:16:45Z
2022-12-27T01:13:48Z,42.805,6.029,13.3015,4.60069,2470.591,2022-12-27T03:19:48Z
2022-12-27T01:16:51Z,42.805,6.029,13.3011,4.60064,2470.6,2022-12-27T03:22:51Z
2022-12-27T01:19:54Z,42.805,6.029,13.3021,4.60066,2470.624,2022-12-27T03:25:54Z
2022-12-27T01:22:57Z,42.805,6.029,13.3021,4.60067,2470.577,2022-12-27T03:28:57Z
2022-12-27T01:26:00Z,42.805,6.029,13.3019,4.60069,2470.6,2022-12-27T03:32:01Z
2022-12-27T01:29:03Z,42.805,6.029,13.3016,4.60067,2470.646,2022-12-27T03:35:04Z
2022-12-27T01:32:06Z,42.805,6.029,13.3017,4.60067,2470.614,2022-12-27T03:38:07Z
2022-12-27T01:35:09Z,42.805,6.029,13.3019,4.60066,2470.637,2022-12-27T03:41:10Z
2022-12-27T01:38:12Z,42.805,6.029,13.3014,4.60067,2470.624,2022-12-27T03:44:13Z
2022-12-27T01:41:15Z,42.805,6.029,13.3016,4.60066,2470.591,2022-12-27T03:47:16Z
2022-12-27T01:44:19Z,42.805,6.029,13.3014,4.60065,2470.6,2022-12-27T03:50:19Z
2022-12-27T01:47:22Z,42.805,6.029,13.3016,4.60068,2470.6,2022-12-27T03:53:22Z
2022-12-27T01:50:25Z,42.805,6.029,13.3015,4.60069,2470.591,2022-12-27T03:56:25Z
2022-12-27T01:53:28Z,42.805,6.029,13.3018,4.60068,2470.6,2022-12-27T03:59:28Z
2022-12-27T01:56:31Z,42.805,6.029,13.3018,4.60067,2470.553,2022-12-27T04:02:31Z
2022-12-27T01:59:34Z,42.805,6.029,13.3021,4.60069,2470.637,2022-12-27T04:05:35Z
2022-12-27T02:02:37Z,42.805,6.029,13.3018,4.60074,2470.6,2022-12-27T04:08:38Z
2022-12-27T02:05:40Z,42.805,6.029,13.3018,4.60069,2470.577,2022-12-27T04:11:41Z
2022-12-27T02:08:43Z,42.805,6.029,13.3024,4.60079,2470.577,2022-12-27T04:14:44Z
2022-12-27T02:11:46Z,42.805,6.029,13.3026,4.60074,2470.577,2022-12-27T04:17:47Z
2022-12-27T02:14:49Z,42.805,6.029,13.3028,4.60077,2470.577,2022-12-27T04:20:50Z
2022-12-27T02:17:52Z,42.805,6.029,13.3018,4.60072,2470.614,2022-12-27T04:23:53Z
2022-12-27T02:20:56Z,42.805,6.029,13.3013,4.60072,2470.6,2022-12-27T04:26:56Z
2022-12-27T02:23:59Z,42.805,6.029,13.3021,4.60069,2470.577,2022-12-27T04:29:59Z
2022-12-27T02:27:02Z,42.805,6.029,13.3021,4.60078,2470.6,2022-12-27T04:33:02Z
2022-12-27T02:30:05Z,42.805,6.029,13.3024,4.60081,2470.553,2022-12-27T04:36:05Z
2022-12-27T02:33:08Z,42.805,6.029,13.3026,4.60084,2470.6,2022-12-27T04:39:09Z
2022-12-27T02:36:11Z,42.805,6.029,13.3024,4.60115,2470.6,2022-12-27T04:42:12Z
2022-12-27T02:39:14Z,42.805,6.029,13.3016,4.60094,2470.577,2022-12-27T04:45:15Z
2022-12-27T02:42:17Z,42.805,6.029,13.3019,4.60086,2470.614,2022-12-27T04:48:18Z
2022-12-27T02:45:20Z,42.805,6.029,13.3011,4.60127,2470.553,2022-12-27T04:51:21Z
2022-12-27T02:48:23Z,42.805,6.029,13.3021,4.60106,2470.544,2022-12-27T04:54:24Z
2022-12-27T02:51:26Z,42.805,6.029,13.3020,4.60103,2470.614,2022-12-27T04:57:27Z
2022-12-27T02:54:29Z,42.805,6.029,13.3024,4.60113,2470.567,2022-12-27T05:00:30Z
2022-12-27T02:57:33Z,42.805,6.029,13.3067,4.60099,2470.591,2022-12-27T05:03:33Z
2022-12-27T03:00:36Z,42.805,6.029,13.3018,4.60203,2470.567,2022-12-27T05:06:36Z
2022-12-27T03:03:39Z,42.805,6.029,13.3018,4.60122,2470.544,2022-12-27T05:09:39Z
2022-12-27T03:06:42Z,42.805,6.029,13.3017,4.60097,2470.567,2022-12-27T05:12:42Z
2022-12-27T03:09:45Z,42.805,6.029,13.3020,4.60098,2470.591,2022-12-27T05:15:46Z
2022-12-27T03:12:48Z,42.805,6.029,13.3021,4.60098,2470.577,2022-12-27T05:18:49Z
2022-12-27T03:15:51Z,42.805,6.029,13.3093,4.60107,2470.591,2022-12-27T05:21:52Z
2022-12-27T03:18:54Z,42.805,6.029,13.3061,4.60084,2470.577,2022-12-27T05:24:55Z
2022-12-27T03:21:57Z,42.805,6.029,13.3045,4.60082,2470.591,2022-12-27T05:27:58Z
2022-12-27T03:25:00Z,42.805,6.029,13.3049,4.60088,2470.553,2022-12-27T05:31:01Z
2022-12-27T03:28:03Z,42.805,6.029,13.3097,4.60105,2470.544,2022-12-27T05:34:04Z
2022-12-27T03:31:07Z,42.805,6.029,13.3037,4.60092,2470.553,2022-12-27T05:37:07Z
2022-12-27T03:34:10Z,42.805,6.029,13.3019,4.60079,2470.553,2022-12-27T05:40:10Z
2022-12-27T03:37:13Z,42.805,6.029,13.3019,4.60135,2470.6,2022-12-27T05:43:13Z
2022-12-27T03:40:16Z,42.805,6.029,13.3016,4.60096,2470.553,2022-12-27T05:46:16Z
2022-12-27T03:43:19Z,42.805,6.029,13.3014,4.60085,2470.6,2022-12-27T05:49:20Z
2022-12-27T03:46:22Z,42.805,6.029,13.3017,4.60095,2470.553,2022-12-27T05:52:23Z
2022-12-27T03:49:25Z,42.805,6.029,13.3018,4.60097,2470.567,2022-12-27T05:55:26Z
2022-12-27T03:52:28Z,42.805,6.029,13.3031,4.60084,2470.567,2022-12-27T05:58:29Z
2022-12-27T03:55:31Z,42.805,6.029,13.3019,4.60087,2470.567,2022-12-27T06:01:32Z
2022-12-27T03:58:34Z,42.805,6.029,13.3017,4.60081,2470.591,2022-12-27T06:04:35Z
2022-12-27T04:01:37Z,42.805,6.029,13.3020,4.60079,2470.544,2022-12-27T06:07:38Z
2022-12-27T04:04:40Z,42.805,6.029,13.3017,4.60074,2470.567,2022-12-27T06:10:41Z
2022-12-27T04:07:44Z,42.805,6.029,13.3018,4.60080,2470.53,2022-12-27T06:13:44Z
2022-12-27T04:10:47Z,42.805,6.029,13.3014,4.60089,2470.544,2022-12-27T06:16:47Z
2022-12-27T04:13:50Z,42.805,6.029,13.3016,4.60077,2470.567,2022-12-27T06:19:50Z
2022-12-27T04:16:53Z,42.805,6.029,13.3018,4.60078,2470.577,2022-12-27T06:22:54Z
2022-12-27T04:19:56Z,42.805,6.029,13.3018,4.60074,2470.567,2022-12-27T06:25:57Z
2022-12-27T04:22:59Z,42.805,6.029,13.3015,4.60075,2470.53,2022-12-27T06:29:00Z
2022-12-27T04:26:02Z,42.805,6.029,13.3017,4.60090,2470.591,2022-12-27T06:32:03Z
2022-12-27T04:29:05Z,42.805,6.029,13.3020,4.60080,2470.553,2022-12-27T06:35:06Z
2022-12-27T04:32:08Z,42.805,6.029,13.3019,4.60085,2470.544,2022-12-27T06:38:09Z
2022-12-27T04:35:11Z,42.805,6.029,13.3019,4.60081,2470.553,2022-12-27T06:41:12Z
2022-12-27T04:38:14Z,42.805,6.029,13.3022,4.60084,2470.553,2022-12-27T06:44:15Z
2022-12-27T04:41:18Z,42.805,6.029,13.3031,4.60084,2470.553,2022-12-27T06:47:18Z
2022-12-27T04:44:21Z,42.805,6.029,13.3033,4.60079,2470.53,2022-12-27T06:50:21Z
2022-12-27T04:47:24Z,42.805,6.029,13.3024,4.60121,2470.6,2022-12-27T06:53:24Z
2022-12-27T04:50:27Z,42.805,6.029,13.3025,4.60110,2470.553,2022-12-27T06:56:28Z
2022-12-27T04:53:30Z,42.805,6.029,13.3035,4.60096,2470.577,2022-12-27T06:59:31Z
2022-12-27T04:56:33Z,42.805,6.029,13.3038,4.60088,2470.586,2022-12-27T07:02:34Z
2022-12-27T04:59:36Z,42.805,6.029,13.3039,4.60077,2470.567,2022-12-27T07:05:37Z
2022-12-27T05:02:39Z,42.805,6.029,13.3040,4.60081,2470.591,2022-12-27T07:08:40Z
2022-12-27T05:05:42Z,42.805,6.029,13.3033,4.60087,2470.553,2022-12-27T07:11:43Z
2022-12-27T05:08:45Z,42.805,6.029,13.3031,4.60079,2470.567,2022-12-27T07:14:46Z
2022-12-27T05:11:48Z,42.805,6.029,13.3033,4.60076,2470.591,2022-12-27T07:17:49Z
2022-12-27T05:14:52Z,42.805,6.029,13.3037,4.60080,2470.614,2022-12-27T07:20:52Z
2022-12-27T05:17:55Z,42.805,6.029,13.3034,4.60084,2470.614,2022-12-27T07:23:55Z
2022-12-27T05:20:58Z,42.805,6.029,13.3027,4.60087,2470.577,2022-12-27T07:26:58Z
2022-12-27T05:24:01Z,42.805,6.029,13.3034,4.60087,2470.591,2022-12-27T07:30:01Z
2022-12-27T05:27:04Z,42.805,6.029,13.3032,4.60084,2470.567,2022-12-27T07:33:05Z
2022-12-27T05:30:07Z,42.805,6.029,13.3026,4.60079,2470.591,2022-12-27T07:36:08Z
2022-12-27T05:33:10Z,42.805,6.029,13.3024,4.60095,2470.577,2022-12-27T07:39:11Z
2022-12-27T05:36:13Z,42.805,6.029,13.3019,4.60088,2470.614,2022-12-27T07:42:14Z
2022-12-27T05:39:16Z,42.805,6.029,13.3023,4.60102,2470.614,2022-12-27T07:45:17Z
2022-12-27T05:42:19Z,42.805,6.029,13.3014,4.60092,2470.567,2022-12-27T07:48:20Z
2022-12-27T05:45:22Z,42.805,6.029,13.3017,4.60088,2470.6,2022-12-27T07:51:23Z
2022-12-27T05:48:25Z,42.805,6.029,13.3011,4.60081,2470.614,2022-12-27T07:54:26Z
2022-12-27T05:51:29Z,42.805,6.029,13.3020,4.60112,2470.614,2022-12-27T07:57:29Z
2022-12-27T05:54:32Z,42.805,6.029,13.3016,4.60085,2470.6,2022-12-27T08:00:32Z
2022-12-27T05:57:35Z,42.805,6.029,13.3017,4.60110,2470.637,2022-12-27T08:03:35Z
2022-12-27T06:00:38Z,42.805,6.029,13.3016,4.60082,2470.6,2022-12-27T08:06:39Z
2022-12-27T06:03:41Z,42.805,6.029,13.3017,4.60086,2470.6,2022-12-27T08:09:42Z
2022-12-27T06:06:44Z,42.805,6.029,13.3014,4.60088,2470.614,2022-12-27T08:12:45Z
2022-12-27T06:09:47Z,42.805,6.029,13.3014,4.60077,2470.614,2022-12-27T08:15:48Z
2022-12-27T06:12:50Z,42.805,6.029,13.3015,4.60080,2470.6,2022-12-27T08:18:51Z
2022-12-27T06:15:53Z,42.805,6.029,13.3015,4.60079,2470.6,2022-12-27T08:21:54Z
2022-12-27T06:18:56Z,42.805,6.029,13.3015,4.60077,2470.637,2022-12-27T08:24:57Z
2022-12-27T06:21:59Z,42.805,6.029,13.3018,4.60072,2470.624,2022-12-27T08:28:00Z
2022-12-27T06:25:02Z,42.805,6.029,13.3014,4.60080,2470.624,2022-12-27T08:31:03Z
2022-12-27T06:28:06Z,42.805,6.029,13.3015,4.60079,2470.637,2022-12-27T08:34:06Z
2022-12-27T06:31:09Z,42.805,6.029,13.3014,4.60081,2470.624,2022-12-27T08:37:09Z
2022-12-27T06:34:12Z,42.805,6.029,13.3017,4.60097,2470.67,2022-12-27T08:40:12Z
2022-12-27T06:37:15Z,42.805,6.029,13.3019,4.60081,2470.624,2022-12-27T08:43:16Z
2022-12-27T06:40:18Z,42.805,6.029,13.3016,4.60074,2470.646,2022-12-27T08:46:19Z
2022-12-27T06:43:21Z,42.805,6.029,13.3014,4.60082,2470.637,2022-12-27T08:49:22Z
2022-12-27T06:46:24Z,42.805,6.029,13.3019,4.60097,2470.646,2022-12-27T08:52:25Z
2022-12-27T06:49:27Z,42.805,6.029,13.3016,4.60077,2470.684,2022-12-27T08:55:28Z
2022-12-27T06:52:30Z,42.805,6.029,13.3019,4.60079,2470.661,2022-12-27T08:58:31Z
2022-12-27T06:55:33Z,42.805,6.029,13.3015,4.60074,2470.693,2022-12-27T09:01:34Z
2022-12-27T06:58:36Z,42.805,6.029,13.3020,4.60080,2470.684,2022-12-27T09:04:37Z
2022-12-27T07:01:39Z,42.805,6.029,13.3020,4.60077,2470.67,2022-12-27T09:07:40Z
2022-12-27T07:04:43Z,42.805,6.029,13.3021,4.60075,2470.693,2022-12-27T09:10:43Z
2022-12-27T07:07:46Z,42.805,6.029,13.3021,4.60078,2470.693,2022-12-27T09:13:46Z
2022-12-27T07:10:49Z,42.805,6.029,13.3017,4.60070,2470.67,2022-12-27T09:16:50Z
2022-12-27T07:13:52Z,42.805,6.029,13.3019,4.60066,2470.717,2022-12-27T09:19:53Z
2022-12-27T07:16:55Z,42.805,6.029,13.3025,4.60067,2470.67,2022-12-27T09:22:56Z
2022-12-27T07:19:58Z,42.805,6.029,13.3015,4.60075,2470.693,2022-12-27T09:25:59Z
2022-12-27T07:23:01Z,42.805,6.029,13.3022,4.60069,2470.717,2022-12-27T09:29:02Z
2022-12-27T07:26:04Z,42.805,6.029,13.3018,4.60072,2470.768,2022-12-27T09:32:05Z
2022-12-27T07:29:07Z,42.805,6.029,13.3016,4.60067,2470.73,2022-12-27T09:35:08Z
2022-12-27T07:32:10Z,42.805,6.029,13.3021,4.60066,2470.763,2022-12-27T09:38:11Z
2022-12-27T07:35:13Z,42.805,6.029,13.3017,4.60066,2470.74,2022-12-27T09:41:14Z
2022-12-27T07:38:17Z,42.805,6.029,13.3014,4.60068,2470.717,2022-12-27T09:44:17Z
2022-12-27T07:41:20Z,42.805,6.029,13.3015,4.60069,2470.754,2022-12-27T09:47:20Z
2022-12-27T07:44:23Z,42.805,6.029,13.3014,4.60067,2470.717,2022-12-27T09:50:23Z
2022-12-27T07:47:26Z,42.805,6.029,13.3015,4.60069,2470.717,2022-12-27T09:53:27Z
2022-12-27T07:50:29Z,42.805,6.029,13.3018,4.60069,2470.754,2022-12-27T09:56:30Z
2022-12-27T07:53:32Z,42.805,6.029,13.3018,4.60067,2470.763,2022-12-27T09:59:33Z
2022-12-27T07:56:35Z,42.805,6.029,13.3014,4.60072,2470.777,2022-12-27T10:02:36Z
2022-12-27T07:59:38Z,42.805,6.029,13.3015,4.60070,2470.763,2022-12-27T10:05:39Z
2022-12-27T08:02:41Z,42.805,6.029,13.3013,4.60068,2470.763,2022-12-27T10:08:42Z
2022-12-27T08:05:44Z,42.805,6.029,13.3016,4.60068,2470.8,2022-12-27T10:11:45Z
2022-12-27T08:08:47Z,42.805,6.029,13.3016,4.60069,2470.787,2022-12-27T10:14:48Z
2022-12-27T08:11:50Z,42.805,6.029,13.3016,4.60067,2470.787,2022-12-27T10:17:51Z
2022-12-27T08:14:54Z,42.805,6.029,13.3015,4.60067,2470.8,2022-12-27T10:20:54Z
2022-12-27T08:17:57Z,42.805,6.029,13.3016,4.60069,2470.773,2022-12-27T10:23:57Z
2022-12-27T08:21:00Z,42.805,6.029,13.3017,4.60070,2470.787,2022-12-27T10:27:01Z
2022-12-27T08:24:03Z,42.805,6.029,13.3015,4.60072,2470.824,2022-12-27T10:30:04Z
2022-12-27T08:27:06Z,42.805,6.029,13.3017,4.60069,2470.8,2022-12-27T10:33:07Z
2022-12-27T08:30:09Z,42.805,6.029,13.3020,4.60068,2470.787,2022-12-27T10:36:10Z
2022-12-27T08:33:12Z,42.805,6.029,13.3019,4.60069,2470.787,2022-12-27T10:39:13Z
2022-12-27T08:36:15Z,42.805,6.029,13.3018,4.60072,2470.8,2022-12-27T10:42:16Z
2022-12-27T08:39:18Z,42.805,6.029,13.3019,4.60084,2470.824,2022-12-27T10:45:19Z
2022-12-27T08:42:21Z,42.805,6.029,13.3015,4.60075,2470.787,2022-12-27T10:48:22Z
2022-12-27T08:45:24Z,42.805,6.029,13.3020,4.60069,2470.81,2022-12-27T10:51:25Z
2022-12-27T08:48:28Z,42.805,6.029,13.3019,4.60070,2470.81,2022-12-27T10:54:28Z
2022-12-27T08:51:31Z,42.805,6.029,13.3012,4.60069,2470.833,2022-12-27T10:57:31Z
2022-12-27T08:54:34Z,42.805,6.029,13.3011,4.60072,2470.81,2022-12-27T11:00:35Z
2022-12-27T08:57:37Z,42.805,6.029,13.3014,4.60069,2470.8,2022-12-27T11:03:38Z
2022-12-27T09:00:40Z,42.805,6.029,13.3015,4.60067,2470.833,2022-12-27T11:06:41Z
2022-12-27T09:03:43Z,42.805,6.029,13.3013,4.60068,2470.81,2022-12-27T11:09:44Z
2022-12-27T09:06:46Z,42.805,6.029,13.3015,4.60067,2470.833,2022-12-27T11:12:47Z
2022-12-27T09:09:49Z,42.805,6.029,13.3011,4.60067,2470.847,2022-12-27T11:15:50Z
2022-12-27T09:12:52Z,42.805,6.029,13.3014,4.60066,2470.833,2022-12-27T11:18:53Z
2022-12-27T09:15:55Z,42.805,6.029,13.3019,4.60069,2470.857,2022-12-27T11:21:56Z
2022-12-27T09:18:58Z,42.805,6.029,13.3015,4.60071,2470.833,2022-12-27T11:24:59Z
2022-12-27T09:22:01Z,42.805,6.029,13.3015,4.60073,2470.833,2022-12-27T11:28:02Z
2022-12-27T09:25:05Z,42.805,6.029,13.3015,4.60068,2470.81,2022-12-27T11:31:05Z
2022-12-27T09:28:08Z,42.805,6.029,13.3016,4.60067,2470.843,2022-12-27T11:34:09Z
2022-12-27T09:31:11Z,42.805,6.029,13.3015,4.60069,2470.857,2022-12-27T11:37:12Z
2022-12-27T09:34:14Z,42.805,6.029,13.3015,4.60072,2470.894,2022-12-27T11:40:15Z
2022-12-27T09:37:17Z,42.805,6.029,13.3015,4.60070,2470.833,2022-12-27T11:43:18Z
2022-12-27T09:40:20Z,42.805,6.029,13.3014,4.60069,2470.88,2022-12-27T11:46:21Z
2022-12-27T09:43:23Z,42.805,6.029,13.3013,4.60075,2470.833,2022-12-27T11:49:24Z
2022-12-27T09:46:26Z,42.805,6.029,13.3013,4.60078,2470.871,2022-12-27T11:52:27Z
2022-12-27T09:49:29Z,42.805,6.029,13.3015,4.60072,2470.857,2022-12-27T11:55:30Z
2022-12-27T09:52:32Z,42.805,6.029,13.3014,4.60068,2470.871,2022-12-27T11:58:33Z
2022-12-27T09:55:35Z,42.805,6.029,13.3013,4.60072,2470.833,2022-12-27T12:01:36Z
2022-12-27T09:58:39Z,42.805,6.029,13.3017,4.60069,2470.833,2022-12-27T12:04:39Z
2022-12-27T10:01:42Z,42.805,6.029,13.3013,4.60072,2470.857,2022-12-27T12:07:43Z
2022-12-27T10:04:45Z,42.805,6.029,13.3012,4.60069,2470.81,2022-12-27T12:10:46Z
2022-12-27T10:07:48Z,42.805,6.029,13.3015,4.60072,2470.857,2022-12-27T12:13:49Z
2022-12-27T10:10:51Z,42.805,6.029,13.3014,4.60074,2470.857,2022-12-27T12:16:52Z
2022-12-27T10:13:54Z,42.805,6.029,13.3012,4.60067,2470.871,2022-12-27T12:19:55Z
2022-12-27T10:16:57Z,42.805,6.029,13.3015,4.60067,2470.871,2022-12-27T12:22:58Z
2022-12-27T10:20:00Z,42.805,6.029,13.3017,4.60069,2470.894,2022-12-27T12:26:01Z
2022-12-27T10:23:03Z,42.805,6.029,13.3013,4.60067,2470.88,2022-12-27T12:29:04Z
2022-12-27T10:26:06Z,42.805,6.029,13.3015,4.60067,2470.894,2022-12-27T12:32:07Z
2022-12-27T10:29:09Z,42.805,6.029,13.3011,4.60067,2470.833,2022-12-27T12:35:10Z
2022-12-27T10:32:13Z,42.805,6.029,13.3015,4.60068,2470.871,2022-12-27T12:38:13Z
2022-12-27T10:35:16Z,42.805,6.029,13.3012,4.60068,2470.857,2022-12-27T12:41:16Z
2022-12-27T10:38:19Z,42.805,6.029,13.3011,4.60069,2470.871,2022-12-27T12:44:20Z
2022-12-27T10:41:22Z,42.805,6.029,13.3012,4.60067,2470.833,2022-12-27T12:47:23Z
2022-12-27T10:44:25Z,42.805,6.029,13.3018,4.60067,2470.871,2022-12-27T12:50:26Z
2022-12-27T10:47:28Z,42.805,6.029,13.3014,4.60067,2470.857,2022-12-27T12:53:29Z
2022-12-27T10:50:31Z,42.805,6.029,13.3014,4.60070,2470.857,2022-12-27T12:56:32Z
2022-12-27T10:53:34Z,42.805,6.029,13.3014,4.60068,2470.833,2022-12-27T12:59:35Z
2022-12-27T10:56:37Z,42.805,6.029,13.3014,4.60068,2470.833,2022-12-27T13:02:38Z
2022-12-27T10:59:40Z,42.805,6.029,13.3014,4.60068,2470.847,2022-12-27T13:05:41Z
2022-12-27T11:02:43Z,42.805,6.029,13.3017,4.60074,2470.833,2022-12-27T13:08:44Z
2022-12-27T11:05:47Z,42.805,6.029,13.3018,4.60078,2470.857,2022-12-27T13:11:47Z
2022-12-27T11:08:50Z,42.805,6.029,13.3015,4.60073,2470.847,2022-12-27T13:14:51Z
2022-12-27T11:11:53Z,42.805,6.029,13.3018,4.60074,2470.847,2022-12-27T13:17:54Z
2022-12-27T11:14:56Z,42.805,6.029,13.3013,4.60077,2470.833,2022-12-27T13:20:57Z
2022-12-27T11:17:59Z,42.805,6.029,13.3012,4.60087,2470.833,2022-12-27T13:24:00Z
2022-12-27T11:21:02Z,42.805,6.029,13.3014,4.60077,2470.857,2022-12-27T13:27:03Z
2022-12-27T11:24:05Z,42.805,6.029,13.3015,4.60073,2470.847,2022-12-27T13:30:06Z
2022-12-27T11:27:08Z,42.805,6.029,13.3013,4.60078,2470.857,2022-12-27T13:33:09Z
2022-12-27T11:30:11Z,42.805,6.029,13.3014,4.60071,2470.857,2022-12-27T13:36:12Z
2022-12-27T11:33:14Z,42.805,6.029,13.3016,4.60075,2470.81,2022-12-27T13:39:15Z
2022-12-27T11:36:17Z,42.805,6.029,13.3020,4.60068,2470.847,2022-12-27T13:42:18Z
2022-12-27T11:39:21Z,42.805,6.029,13.3023,4.60074,2470.824,2022-12-27T13:45:21Z
2022-12-27T11:42:24Z,42.805,6.029,13.3012,4.60075,2470.857,2022-12-27T13:48:25Z
2022-12-27T11:45:27Z,42.805,6.029,13.3011,4.60077,2470.857,2022-12-27T13:51:28Z
2022-12-27T11:48:30Z,42.805,6.029,13.3011,4.60077,2470.871,2022-12-27T13:54:31Z
2022-12-27T11:51:33Z,42.805,6.029,13.3008,4.60076,2470.833,2022-12-27T13:57:34Z
2022-12-27T11:54:36Z,42.805,6.029,13.3011,4.60077,2470.81,2022-12-27T14:00:37Z
2022-12-27T11:57:39Z,42.805,6.029,13.3013,4.60067,2470.81,2022-12-27T14:03:40Z
2022-12-27T12:00:42Z,42.805,6.029,13.3016,4.60070,2470.787,2022-12-27T14:06:43Z
2022-12-27T12:03:45Z,42.805,6.029,13.3015,4.60068,2470.847,2022-12-27T14:09:46Z
2022-12-27T12:06:48Z,42.805,6.029,13.3047,4.60112,2470.81,2022-12-27T14:12:49Z
2022-12-27T12:09:51Z,42.805,6.029,13.3015,4.60097,2470.847,2022-12-27T14:15:52Z
2022-12-27T12:12:55Z,42.805,6.029,13.3011,4.60079,2470.8,2022-12-27T14:18:55Z
2022-12-27T12:15:58Z,42.805,6.029,13.3012,4.60072,2470.8,2022-12-27T14:21:59Z
2022-12-27T12:19:01Z,42.805,6.029,13.3011,4.60069,2470.824,2022-12-27T14:25:02Z
2022-12-27T12:22:04Z,42.805,6.029,13.3011,4.60076,2470.81,2022-12-27T14:28:05Z
2022-12-27T12:25:07Z,42.805,6.029,13.3014,4.60072,2470.81,2022-12-27T14:31:08Z
2022-12-27T12:28:10Z,42.805,6.029,13.3011,4.60069,2470.787,2022-12-27T14:34:11Z
2022-12-27T12:31:13Z,42.805,6.029,13.3011,4.60067,2470.8,2022-12-27T14:37:14Z
2022-12-27T12:34:16Z,42.805,6.029,13.3017,4.60066,2470.787,2022-12-27T14:40:17Z
2022-12-27T12:37:19Z,42.805,6.029,13.3013,4.60069,2470.787,2022-12-27T14:43:20Z
2022-12-27T12:40:22Z,42.805,6.029,13.3012,4.60069,2470.8,2022-12-27T14:46:23Z
2022-12-27T12:43:25Z,42.805,6.029,13.3014,4.60069,2470.81,2022-12-27T14:49:26Z
2022-12-27T12:46:29Z,42.805,6.029,13.3014,4.60068,2470.787,2022-12-27T14:52:29Z
2022-12-27T12:49:32Z,42.805,6.029,13.3024,4.60079,2470.787,2022-12-27T14:55:33Z
2022-12-27T12:52:35Z,42.805,6.029,13.3015,4.60079,2470.787,2022-12-27T14:58:36Z
2022-12-27T12:55:38Z,42.805,6.029,13.3016,4.60079,2470.787,2022-12-27T15:01:39Z
2022-12-27T12:58:41Z,42.805,6.029,13.3017,4.60075,2470.763,2022-12-27T15:04:42Z
2022-12-27T13:01:44Z,42.805,6.029,13.3013,4.60074,2470.787,2022-12-27T15:07:45Z
2022-12-27T13:04:47Z,42.805,6.029,13.3015,4.60073,2470.787,2022-12-27T15:10:48Z
2022-12-27T13:07:50Z,42.805,6.029,13.3015,4.60070,2470.763,2022-12-27T15:13:51Z
2022-12-27T13:10:53Z,42.805,6.029,13.3011,4.60073,2470.74,2022-12-27T15:16:54Z
2022-12-27T13:13:56Z,42.805,6.029,13.3011,4.60072,2470.787,2022-12-27T15:19:57Z
2022-12-27T13:16:59Z,42.805,6.029,13.3024,4.60075,2470.8,2022-12-27T15:23:00Z
2022-12-27T13:20:03Z,42.805,6.029,13.3015,4.60086,2470.777,2022-12-27T15:26:04Z
2022-12-27T13:23:06Z,42.805,6.029,13.3015,4.60079,2470.74,2022-12-27T15:29:07Z
2022-12-27T13:26:09Z,42.805,6.029,13.3015,4.60073,2470.787,2022-12-27T15:32:10Z
2022-12-27T13:29:12Z,42.805,6.029,13.3014,4.60072,2470.754,2022-12-27T15:35:13Z
2022-12-27T13:32:15Z,42.805,6.029,13.3016,4.60074,2470.777,2022-12-27T15:38:16Z
2022-12-27T13:35:18Z,42.805,6.029,13.3016,4.60070,2470.74,2022-12-27T15:41:19Z
2022-12-27T13:38:21Z,42.805,6.029,13.3015,4.60074,2470.777,2022-12-27T15:44:22Z
2022-12-27T13:41:24Z,42.805,6.029,13.3014,4.60077,2470.763,2022-12-27T15:47:25Z
2022-12-27T13:44:27Z,42.805,6.029,13.3014,4.60092,2470.763,2022-12-27T15:50:28Z
2022-12-27T13:47:30Z,42.805,6.029,13.3014,4.60093,2470.777,2022-12-27T15:53:31Z
2022-12-27T13:50:33Z,42.805,6.029,13.3021,4.60095,2470.763,2022-12-27T15:56:34Z
2022-12-27T13:53:37Z,42.805,6.029,13.3026,4.60098,2470.74,2022-12-27T15:59:38Z
2022-12-27T13:56:40Z,42.805,6.029,13.3036,4.60085,2470.74,2022-12-27T16:02:41Z
2022-12-27T13:59:43Z,42.805,6.029,13.3034,4.60091,2470.74,2022-12-27T16:05:44Z
2022-12-27T14:02:46Z,42.805,6.029,13.3031,4.60092,2470.73,2022-12-27T16:08:47Z
2022-12-27T14:05:49Z,42.805,6.029,13.3026,4.60125,2470.717,2022-12-27T16:11:50Z
2022-12-27T14:08:52Z,42.805,6.029,13.3026,4.60185,2470.754,2022-12-27T16:14:53Z
2022-12-27T14:11:55Z,42.805,6.029,13.3032,4.60177,2470.74,2022-12-27T16:17:56Z
2022-12-27T14:14:58Z,42.805,6.029,13.3031,4.60135,2470.73,2022-12-27T16:20:59Z
2022-12-27T14:18:01Z,42.805,6.029,13.3019,4.60102,2470.707,2022-12-27T16:24:02Z
2022-12-27T14:21:04Z,42.805,6.029,13.3019,4.60132,2470.73,2022-12-27T16:27:05Z
2022-12-27T14:24:07Z,42.805,6.029,13.3017,4.60165,2470.717,2022-12-27T16:30:08Z
2022-12-27T14:27:11Z,42.805,6.029,13.3018,4.60114,2470.717,2022-12-27T16:33:12Z
2022-12-27T14:30:14Z,42.805,6.029,13.3014,4.60162,2470.693,2022-12-27T16:36:15Z
2022-12-27T14:33:17Z,42.805,6.029,13.3018,4.60089,2470.684,2022-12-27T16:39:18Z
2022-12-27T14:36:20Z,42.805,6.029,13.3018,4.60085,2470.754,2022-12-27T16:42:21Z
2022-12-27T14:39:23Z,42.805,6.029,13.3014,4.60079,2470.717,2022-12-27T16:45:24Z
2022-12-27T14:42:26Z,42.805,6.029,13.3014,4.60081,2470.693,2022-12-27T16:48:27Z
2022-12-27T14:45:29Z,42.805,6.029,13.3015,4.60088,2470.693,2022-12-27T16:51:30Z
2022-12-27T14:48:32Z,42.805,6.029,13.3013,4.60089,2470.73,2022-12-27T16:54:33Z
2022-12-27T14:51:35Z,42.805,6.029,13.3015,4.60109,2470.707,2022-12-27T16:57:36Z
2022-12-27T14:54:38Z,42.805,6.029,13.3016,4.60122,2470.693,2022-12-27T17:00:39Z
2022-12-27T14:57:41Z,42.805,6.029,13.3018,4.60105,2470.73,2022-12-27T17:03:43Z
2022-12-27T15:00:45Z,42.805,6.029,13.3014,4.60099,2470.693,2022-12-27T17:06:46Z